www.pogodaiklimat.ru

Погода и климат >> Архив погоды >> Россия >> Новосибирская область >> Усть-Тарка


ПОГОДА в Усть-Тарке

  • Прогноз погоды в Усть-Тарке
  • Монитор погоды в Усть-Тарке

АРХИВ ПОГОДЫ в Усть-Тарке

Время (UTC), дата Ветер
(напр.,м/с)
 
Видим.   Явления Облачность Т
(С)
Тd
(С)
f
(%)
Тe
(С)
Тes
(С)
Комфортность P
(гПа)
Po
(гПа)
Тmin
(С)
Tmax
(С)
R
(мм)
R24
(мм)
S
(см)
00 17.01 ЮВ 2 50 км 3/0
[Ci sp]
-21.1 -23.5 81 -27 -27 1030.5 1016.7 -22.3 36
03 17.01 ЮЗ 3 50 км 9/9 600 м
[Sc]
-17.3 -19.4 84 -24 -24 1031.2 1017.6
06 17.01 ЮВ 1 50 км 3/0
[Ci sp]
-18.1 -20.3 83 -21 -19 1032.0 1018.3
09 17.01 ЮВ 2 50 км 1/0
[Ci fib]
-15.4 -17.4 85 -20 -20 1032.1 1018.6
12 17.01 ЮВ 3 50 км 1/0
[Ci sp]
-18.2 -20.4 83 -25 -25 1032.6 1019.0 -15.3
15 17.01 ЮВ 4 50 км ясно -19.0 -21.2 83 -28 -28 1031.7 1018.0
18 17.01 ЮВ 3 50 км 4/0
[Ci sp]
-17.5 -19.6 84 -25 -25 1030.1 1016.5
21 17.01 ЮВ 3 50 км 8/0
[Ci sp]
-16.2 -18.1 85 -23 -23 1028.4 1014.9
00 18.01 Ю 4 50 км 9/0
[Ci sp]
-13.1 -14.8 87 -20 -20 1025.6 1012.3 -20.0 36
03 18.01 ЮВ 4 50 км 9/0
[Ac trans Ci sp]
-12.7 -14.4 87 -20 -20 1023.8 1010.5
06 18.01 Ю 4
{10}
50 км 10/3 600 м
[Sc Ac As]
-10.4 -11.9 89 -17 -17 1021.5 1008.4
09 18.01 Ю 5 50 км 10/4 600 м
[Sc As trans]
-9.1 -10.9 87 -17 -17 1020.4 1007.4
12 18.01 Ю 4 50 км 10/10 600 м
[Sc]
-9.2 -11.4 84 -16 -16 1020.7 1007.7 -9.1
15 18.01 Ю 3 50 км 10/4 600 м
[Sc As trans]
-9.2 -11.2 85 -15 -15 1019.7 1006.7
18 18.01 Ю 3 50 км 10/10 600 м
[Sc]
-8.5 -10.5 85 -14 -14 1018.8 1005.8
21 18.01 Ю 4 50 км 10/10 600 м
[Sc]
-8.2 -9.6 90 -15 -15 1017.5 1004.6
00 19.01 ЮВ 3 50 км 10/10 600 м
[Sc]
-9.8 -11.4 88 -16 -16 1017.1 1004.1 -9.8 36
03 19.01 Ю 3 50 км ясно -7.7 -9.6 86 -13 -13 1017.2 1004.3 -9.9
06 19.01 ЮЗ 4 50 км 10/10 600 м
[Sc]
-6.8 -9.3 82 -13 -13 1017.3 1004.4
09 19.01 Ю 2 50 км ясно -6.2 -8.9 81 -10 -10 1018.0 1005.1
12 19.01 Ю 2 50 км ясно -5.8 -6.5 95 -10 -10 1018.4 1005.6 -5.8
15 19.01 Ю 3 50 км 10/10 600 м
[Sc]
-8.0 -9.0 92 -14 -14 1018.3 1005.3
18 19.01 ЮВ 1 500 м туман 10/10 600 м
[Cb cap]
-14.1 -15.9 86 -17 -17 1018.0 1004.7
21 19.01 ЮВ 2 10 км {туман} ясно -16.9 -18.9 84 -22 -22 1017.6 1004.2
00 20.01 Ю 2 50 км ясно -16.8 -18.8 84 -22 -22 1017.3 1003.9 -18.8 36
03 20.01 ЮВ 1 50 км 10/10 600 м
[Sc]
-14.6 -16.4 86 -17 -17 1017.5 1004.3
06 20.01 ЮЗ 1 50 км 10/10 600 м
[Sc]
-11.8 -13.5 87 -14 -14 1017.9 1004.7
12 20.01 Ю 2 50 км ясно -7.4 -8.4 93 -12 -12 1017.6 1004.7 -7.4
18 20.01 Ю 3 50 км 9/9 600 м
[Sc]
-2.6 -3.2 96 -8 -8 1016.1 1003.4
00 21.01 ЮВ 2 50 км 9/9 600 м
[Sc]
-2.4 -3.2 94 -7 -7 1014.5 1001.9 -7.3 36
06 21.01 Ю 4 4000 м дымка 10/10 600 м
[Sc]
-2.8 -5.6 81 -9 -9 1010.9 998.3
12 21.01 ЮЗ 3 50 км в посл. час снег 10/10 600 м
[Sc]
-4.4 -6.3 87 -10 -10 1011.9 999.2 -2.3 0.4

 

Местоположение метеостанции Усть-Тарка (Новосибирская область, Россия): широта 55.57 долгота 75.68 высота над уровнем моря 100 м.

В архиве по умолчанию представлена погода в Усть-Тарке за последнюю неделю. Архивные данные за месяц целиком и за предыдущие месяцы, начиная с января 2011 года, Вы можете получить, выбрав интересующий диапазон дат из раскрывающегося списка и нажав кнопку "Ввод!".


*Определитесь, кто Вы:
робот инопланетянин человек

Внимание! Время в таблицах - всемирное. Для получения местного времени необходимо прибавить поправку, которая равна 7 ч.

Смотрите также архив погоды в соседних городах и на ближайших метеорологических станциях:

Погода в Татарске (Новосибирская область, Россия) (44 км)
Погода в Нижней Омке (Омская область, Россия) (50 км)
Погода в Венгерово (Новосибирская область, Россия) (66 км)
Погода в Чанах (Новосибирская область, Россия) (73 км)
Погода в Большеречье (Омская область, Россия) (88 км)
Погода в Калачинске (Омская область, Россия) (92 км)
Погода в Любимовке (Омская область, Россия) (107 км)
Погода в Чистоозерном (Новосибирская область, Россия) (112 км)
Погода в Кыштовке (Новосибирская область, Россия) (127 км)
Погода в Саргатском (Омская область, Россия) (138 км)

Пояснения к столбцам:

Ветер - указаны скорость ветра в м/с - средняя за 10 мин, порывы в срок и между сроками (в фигурных скобках) и направление, откуда дует ветер: С - северный, СВ - северо-восточный, В - восточный, ЮВ - юго-восточный, Ю - южный, ЮЗ - юго-западный, З - западный, СЗ - северо-западный.
Видимость - горизонтальная дальность видимости в метрах или километрах. При видимости от 1 до 10 км при отсутствии осадков обычно наблюдается дымка, при ухудшении видимости до 1 км и менее - туман. В сухую погоду видимость может ухудшаться дымом, пылью или мглою.
Явления - указаны атмосферные явления, наблюдавшиеся в срок или в последний час перед сроком; фигурными скобками обозначены явления, наблюдавшиеся между сроками (за 1-3 часа до срока); квадратными скобками обозначены град или гололедные отложения с указанием их диаметра в мм.
Облачность - указаны через наклонную черту общая и нижняя облачность в баллах и высота нижней границы облаков в метрах; квадратными скобками обозначены формы облаков: Ci - перистые, Cs - перисто-слоистые, Cc - перисто-кучевые, Ac - высококучевые, As - высокослоистые, Sc - слоисто-кучевые, Ns - слоисто-дождевые, Cu - кучевые, Cb - кучево-дождевые. Подробнее классификацию облаков см. в Атласе облаков (PDF).
T - Температура воздуха - температура, измеренная на высоте 2 м над землей.
Td - Температура точки росы - температура, при понижении до которой содержащийся в воздухе водяной пар достигнет насыщения.
f - Относительная влажность воздуха - влажноcть воздуха, измеренная на высоте 2 м над землей.
Te - Эффективная температура - температура, которую ощущает одетый по сезону человек в тени. Характеристика душности погоды. При расчете учитывается влияние влажности воздуха и скорости ветра на теплоощущения человека.
Tes - Эффективная температура на солнце - температура, которую ощущает человек, с поправкой на солнечный нагрев. Характеристика знойности погоды. Зависит от высоты солнца над горизонтом, облачности и скорости ветра. Ночью, в пасмурную погоду, а также при ветре 12 м/с и более поправка равна нулю.
P - Атмосферное давление - приведенное к уровню моря атмосферное давление.
Po - Атмосферное давление - измеренное на уровне метеостанции атмосферное давление.
Tmin - Минимальная температура - минимум температуры воздуха на высоте 2 м над землей.
Tmax - Максимальная температура - максимум температуры воздуха на высоте 2 м над землей.
R - Количество осадков - Количество выпавших осадков за период времени, мм. При наведении курсора мыши на число - период времени, за который выпало указанное количество осадков.
R24 - Количество осадков - Количество выпавших осадков за 24 часа, мм.
S - Снежный покров - Высота снежного покрова, см. При наведении курсора мыши на число - состояние снежного покрова и степень покрытия местности в баллах.